Theta_e
355 355 354 355 356 357 358 358 359 358 357 356 356 356 357 358 358 358 357 356 357 357 358 359 361 361 356 359 361 362 361 361 360 358 359 358 357 357 355 356 354 352
355 355 355 355 355 356 356 357 358 358 358 358 357 357 357 357 356 357 356 356 358 358 359 359 362 361 360 358 359 360 361 362 360 359 357 357 357 357 355 356 355 354
354 353 351 350 351 353 355 357 357 356 355 356 356 357 356 356 356 356 356 356 356 357 359 362 362 362 361 359 360 359 358 359 359 358 358 356 356 356 357 355 353 354
352 351 348 350 351 351 352 353 354 356 356 355 355 356 355 355 355 355 356 356 356 356 356 357 358 361 362 361 360 357 357 358 357 358 356 356 356 356 357 355 353 353
352 352 352 352 352 352 352 351 350 350 353 354 356 356 355 356 355 354 354 354 356 357 357 357 358 358 359 359 359 357 356 355 357 357 353 353 357 357 356 354 351 351
352 355 354 352 351 348 346 346 346 349 351 351 352 354 355 354 355 355 355 355 356 356 354 356 357 358 360 359 359 359 358 354 354 356 355 354 354 356 355 353 352 352
348 350 351 352 351 348 347 345 346 347 348 349 353 353 354 353 353 354 355 355 356 357 357 358 358 358 359 360 359 357 357 357 356 356 355 353 354 355 355 354 353 352
347 348 348 349 350 350 350 347 346 346 348 350 349 351 353 352 351 353 353 353 354 357 359 359 358 358 358 357 356 357 357 356 355 356 355 354 354 354 354 354 355 354
345 345 345 347 347 348 347 347 346 348 349 349 348 349 350 349 350 351 353 353 353 354 356 358 358 355 355 355 356 356 356 356 355 355 354 352 351 352 353 355 356 356
342 343 346 346 346 346 347 347 347 347 348 347 348 348 347 349 351 352 352 352 352 351 353 354 356 356 355 354 354 354 355 356 356 355 353 353 351 351 352 353 356 356
343 344 345 345 345 345 346 347 347 347 346 346 347 347 348 349 349 350 350 350 348 348 348 350 352 355 356 354 352 352 353 353 353 354 354 353 352 352 353 354 355 355
342 343 343 344 345 345 345 346 346 346 346 345 346 346 348 347 348 348 347 347 347 347 348 347 350 351 354 355 354 351 352 352 350 350 352 353 353 353 353 354 353 355
341 341 341 342 342 344 345 344 344 344 345 344 345 346 346 345 345 347 347 345 347 346 346 347 348 349 351 354 352 352 352 351 352 348 348 350 354 354 353 351 354 355
342 341 341 342 343 344 344 343 343 343 343 344 344 344 343 343 344 343 342 344 345 347 347 348 347 347 349 352 353 352 351 349 350 350 350 350 351 354 354 351 348 350
341 341 341 342 342 342 342 342 342 342 343 343 343 343 342 343 344 344 343 344 345 346 347 346 345 344 346 350 351 350 352 351 351 350 349 351 351 351 352 353 354 354
340 342 342 341 340 340 340 340 340 341 341 342 342 342 342 344 345 345 344 343 342 344 345 344 344 344 345 347 347 348 349 350 349 349 350 351 351 350 349 352 353 351
339 339 339 339 340 339 339 339 339 339 341 341 342 342 342 344 343 344 343 343 343 342 342 343 342 343 344 344 344 345 347 349 350 348 348 348 349 349 350 353 352 353
338 338 338 338 338 338 338 339 339 339 339 340 339 340 341 342 342 342 342 342 342 343 343 342 343 342 340 341 343 342 343 346 348 348 347 346 347 348 347 350 352 352
338 337 337 337 337 337 337 337 338 338 338 338 338 339 341 341 341 340 340 341 341 342 342 341 341 342 338 340 339 337 337 342 346 346 348 348 347 346 346 347 348 349
336 336 335 336 336 336 336 336 336 336 337 337 337 338 338 338 340 340 339 339 339 340 342 342 342 340 336 335 334 334 335 338 344 345 346 347 348 349 350 350 350 350
335 336 335 336 337 338 336 335 335 335 336 336 336 336 336 336 337 338 338 338 338 338 339 340 341 337 334 333 331 331 332 337 343 345 344 345 346 349 350 351 352 351
334 334 334 336 336 335 333 333 334 334 334 335 335 335 335 337 337 337 337 337 337 338 337 337 339 334 332 331 329 329 331 341 342 344 344 344 345 347 348 350 352 352
332 331 332 333 334 332 331 331 332 332 333 335 334 333 333 334 335 335 337 337 336 337 336 336 338 335 330 327 327 327 334 341 343 342 343 343 343 345 346 347 348 349
332 332 331 331 330 330 330 330 331 332 332 334 332 331 331 333 334 334 335 336 336 335 336 336 336 337 330 327 325 326 334 339 341 341 341 342 343 344 345 346 347 346
331 330 330 330 330 329 329 329 330 332 333 332 332 332 332 334 333 333 333 334 336 336 334 335 336 336 329 327 325 325 334 339 338 339 339 340 341 341 344 344 345 345
328 328 329 328 327 329 330 331 332 331 332 332 331 331 331 332 334 333 332 332 333 333 332 333 335 338 335 325 324 324 327 337 337 337 337 337 340 339 340 343 343 344
Wind_Speed
6 5 6 6 6 6 5 6 6 7 6 6 6 6 6 6 6 6 6 7 7 8 8 7 7 7 8 7 8 8 8 8 8 8 8 9 10 11 11 11 12 12
6 5 5 5 5 6 7 7 6 6 6 6 6 6 6 7 7 6 7 7 8 8 8 7 6 7 8 7 8 8 8 7 8 7 8 10 10 11 12 12 11 12
6 6 6 6 6 7 7 7 7 7 6 7 7 7 7 6 7 7 7 7 8 8 7 6 7 7 8 8 8 8 8 7 9 9 10 10 10 10 9 9 12 14
6 6 6 6 6 6 6 6 6 6 7 7 7 7 7 7 7 8 7 7 8 8 7 6 6 7 7 8 8 8 8 8 9 9 9 8 9 10 10 8 9 11
6 5 5 5 5 6 5 6 7 6 6 7 7 7 6 7 8 7 7 7 8 8 7 7 6 7 7 8 8 7 8 8 9 9 9 9 9 9 9 9 11 13
5 5 5 5 5 6 6 6 6 6 7 7 7 7 7 7 7 8 8 8 8 8 7 6 7 7 7 7 7 7 7 8 8 8 9 9 9 9 8 9 11 12
7 6 6 5 6 7 7 7 6 6 6 6 6 6 6 7 7 8 8 8 8 8 7 7 7 8 7 6 6 7 8 8 9 8 9 8 8 10 10 10 10 12
7 7 7 6 7 6 7 7 7 6 6 6 6 6 6 6 7 7 7 9 9 7 7 7 8 8 8 7 7 7 8 7 8 9 9 9 8 10 11 10 10 12
6 7 8 8 8 6 6 7 7 7 6 7 6 7 6 6 6 6 7 8 8 8 7 7 7 8 7 8 8 8 8 9 9 9 9 9 10 11 11 10 11 10
8 8 8 8 8 7 7 7 7 7 6 7 7 7 7 7 6 6 6 7 8 8 8 7 6 7 8 8 8 9 9 9 9 9 9 10 11 10 11 11 11 11
8 8 8 9 8 7 8 8 7 7 7 7 7 7 8 7 7 6 7 7 7 8 8 8 8 7 7 8 9 8 9 9 9 9 9 10 11 11 11 10 11 12
8 8 8 9 9 8 8 8 8 7 7 7 7 8 8 7 7 7 7 8 7 8 8 8 8 8 8 7 8 8 8 7 8 11 10 9 10 11 12 10 11 11
8 8 8 8 8 9 8 8 8 9 9 8 8 8 8 8 8 8 8 8 8 8 8 8 9 9 8 8 7 7 8 8 8 9 11 11 9 11 10 12 11 11
8 8 8 8 8 9 9 9 9 9 9 9 9 9 9 8 8 9 9 8 8 8 8 8 8 8 9 8 7 7 7 8 8 9 9 10 11 10 9 9 11 14
8 8 8 8 9 9 9 10 10 10 10 10 9 9 8 9 9 9 9 10 9 8 8 8 8 8 6 6 7 8 7 7 8 9 9 9 10 11 11 11 10 10
9 8 9 9 9 9 9 10 10 10 11 11 10 10 9 9 9 9 9 9 10 9 8 7 7 6 6 6 7 8 8 8 8 8 9 8 9 9 10 10 9 12
9 9 9 10 10 10 10 10 10 10 10 11 11 10 10 9 9 10 9 9 9 9 10 9 7 7 7 3 5 8 9 8 8 8 8 9 10 11 11 10 9 9
9 10 10 10 10 10 11 10 10 10 10 11 11 12 11 10 10 9 9 9 9 9 10 9 9 8 5 4 5 6 9 9 9 8 8 9 10 9 10 9 9 9
10 10 11 11 10 10 10 10 10 11 11 11 12 12 12 11 11 10 10 9 9 10 10 10 9 8 5 6 7 8 9 10 8 9 9 10 11 11 11 10 8 9
11 11 11 11 11 10 10 10 11 11 11 10 11 12 12 12 12 12 11 10 9 10 10 10 11 8 6 9 10 10 8 9 9 10 10 11 11 11 10 10 9 9
12 11 12 11 10 10 10 11 11 11 11 10 10 11 11 11 12 12 11 11 10 10 10 10 9 8 5 8 11 10 10 12 10 10 9 10 10 10 11 10 10 10
13 13 11 11 11 11 11 11 11 10 11 11 10 11 11 11 11 11 12 12 11 11 11 11 10 8 6 6 9 11 12 10 10 10 10 10 10 10 10 9 9 9
13 13 13 11 11 12 12 12 12 12 11 9 10 11 11 11 11 11 11 11 12 11 11 11 10 8 6 7 10 11 11 10 10 10 10 10 10 10 9 9 9 9
14 13 13 12 12 12 13 12 11 11 11 9 10 11 12 12 11 11 11 10 11 11 10 11 11 10 6 6 9 9 10 11 10 10 10 10 10 10 9 9 10 12
13 13 13 12 12 12 12 12 11 11 10 11 10 10 11 10 11 11 11 11 10 11 13 12 10 10 7 5 6 7 8 10 10 10 11 10 10 10 9 9 9 9
12 13 13 13 13 13 12 11 10 10 11 10 11 10 10 10 9 10 11 11 11 11 11 11 10 9 9 6 7 5 7 9 9 10 11 12 11 10 10 10 9 8
Wind_Direction
19 3 352 340 345 339 337 326 328 315 308 302 302 313 316 319 310 297 289 281 264 262 267 261 258 257 259 250 252 250 253 254 256 251 245 244 240 238 239 231 228 234
30 20 7 358 353 350 347 341 332 324 318 316 317 316 312 309 307 298 292 290 279 270 269 269 263 264 267 276 265 255 253 248 252 253 249 245 247 239 236 236 237 232
23 13 11 6 359 354 351 345 344 337 334 326 316 313 312 312 306 304 298 290 286 285 271 261 263 263 264 262 266 264 259 254 253 248 245 244 243 241 233 227 232 230
25 15 6 3 356 351 346 345 345 340 338 333 335 329 319 311 304 300 301 291 282 282 285 277 270 266 260 262 259 256 253 252 254 256 253 249 245 240 228 226 245 234
5 5 0 353 348 341 339 342 342 343 336 330 332 332 325 322 311 304 293 289 283 281 279 275 258 256 261 264 262 257 250 250 249 245 248 249 245 235 232 223 230 234
3 350 342 347 339 343 341 340 341 337 331 327 332 323 327 323 321 313 310 303 295 291 290 286 281 266 256 259 264 264 265 260 255 250 249 249 250 237 228 227 234 236
353 345 341 336 330 337 332 337 336 332 331 328 315 319 317 317 316 317 315 312 303 300 303 302 294 291 281 268 264 265 263 261 263 254 249 249 249 251 242 232 229 237
343 336 332 333 322 326 325 333 331 333 329 316 318 317 310 311 316 317 319 317 313 312 300 293 290 290 288 281 274 266 265 264 260 251 245 249 249 248 245 241 235 234
333 330 328 327 326 326 334 332 331 329 327 321 320 315 311 310 313 312 312 310 312 314 311 297 293 289 282 278 276 276 270 268 265 260 254 250 240 238 241 239 240 242
333 332 324 326 325 327 333 335 331 327 327 319 322 315 316 312 307 301 300 302 304 308 309 311 297 287 283 280 274 270 273 269 269 266 260 258 256 247 236 235 238 238
327 327 326 327 327 326 330 330 329 326 326 324 324 321 317 313 308 306 298 297 299 305 309 308 307 297 288 285 282 281 277 278 280 276 269 262 260 259 262 248 238 241
325 321 324 325 325 328 329 327 325 325 325 322 322 317 315 311 311 308 304 299 299 300 300 304 303 302 293 285 283 280 279 275 279 280 272 268 266 263 257 255 249 244
329 327 325 325 327 328 327 324 324 325 323 321 320 314 311 311 313 308 304 304 303 300 300 300 301 300 298 288 285 279 272 269 257 266 279 273 269 271 271 265 269 263
335 331 329 328 327 325 324 324 323 322 320 317 316 313 312 309 310 308 305 303 301 299 296 297 294 293 294 298 298 301 296 290 287 267 258 275 272 259 261 266 259 260
333 326 331 330 327 325 325 323 322 320 318 316 316 315 312 311 305 304 304 302 300 296 296 294 292 287 294 316 320 312 303 295 290 288 281 269 271 277 275 265 262 266
329 328 330 330 328 325 323 321 321 321 318 316 315 313 312 310 306 302 302 299 299 300 297 294 291 293 307 344 332 320 314 301 292 286 282 274 270 262 262 272 276 269
327 331 330 328 328 323 323 322 320 319 317 315 313 313 312 310 305 303 304 307 303 299 301 298 297 298 336 358 310 308 312 305 298 290 283 283 278 279 278 264 260 262
327 327 324 323 322 322 320 321 319 318 318 316 315 314 313 311 307 308 307 306 304 299 296 297 297 308 350 317 307 308 308 307 296 287 284 275 271 261 261 263 255 254
328 326 323 321 321 320 319 317 317 315 316 317 315 314 311 309 310 310 310 309 305 303 300 299 299 311 349 338 323 312 306 304 291 283 279 276 278 279 278 279 280 273
327 325 323 322 322 319 318 315 313 313 313 312 311 310 309 310 311 312 313 310 308 306 303 302 299 319 344 324 315 311 310 304 290 281 275 272 271 271 273 276 272 267
328 324 323 323 322 320 316 313 312 312 311 311 310 308 308 309 311 311 312 310 308 308 305 303 301 321 325 312 309 317 319 304 283 276 273 271 268 267 268 265 262 265
326 323 320 319 315 314 312 314 313 311 309 310 308 306 305 305 304 304 307 309 309 307 305 304 305 317 315 313 318 318 316 299 287 282 279 277 274 273 269 265 265 265
321 318 317 318 315 315 316 317 315 313 309 309 306 306 306 304 304 304 304 304 307 306 305 306 307 319 352 326 312 309 311 305 297 290 286 283 281 280 278 273 268 265
321 320 321 322 322 321 320 316 313 309 307 310 308 307 303 305 306 303 303 305 306 307 309 310 308 311 314 295 293 304 312 308 300 295 290 288 285 282 281 281 276 273
324 324 327 328 327 325 321 317 314 311 309 313 311 306 304 303 305 305 306 307 310 311 308 304 305 312 321 294 285 311 318 315 310 303 297 292 293 290 286 280 279 277
327 328 329 327 324 321 322 318 317 314 315 318 315 312 309 310 308 310 313 315 320 321 321 317 311 321 348 328 301 313 314 318 314 309 303 307 307 304 300 290 284 279